Location: Nitra
(0.0000°N, 18.0833°E)
Time: 17:40:56
(UTC+02:00)

A-11 Canister half - Pass Details

Date: 07 April 2023
Orbit: 1513 x 1686 km, 47.2° (Epoch: 02 June)

Event Time Altitude Azimuth Distance (km) Brightness Sun altitude
Exits shadow 05:18:20 30° 237° (WSW) 2,654 9.7 -22.7°
Maximum altitude 05:19:10 30° 229° (SW) 2,635 9.8 -22.5°
Drops below altitude 10° 05:27:29 10° 171° (S) 3,853 11.1 -20.5°
Sets 05:31:08 0° 161° (SSE) 4,813 11.8 -19.6°
